Home > Time Zones > World Clock > Weather > Italy > Monza > Past weeks

Flag for Italy Weather past 2 weeks in Monza, Italy

Now
50 °F

Clear.


Feels Like: 48 °F
Forecast: 49 / 62 °F
Wind: 6 mph from North

Location: Milan / Linate

Current Time: Mar 31, 2015 at 7:30:39 AM

Latest Report: Mar 31, 2015 at 6:50 AM


Visibility: 10 mi

Pressure: 29.83 "Hg

Humidity: 71%

Dew point: 41 °F

Location of MonzaLocation

Historic Weather in Monza — Graph

°F

Monza temperature yesterday

Maximum temperature yesterday: 73 °F (at 3:50 PM)
Minimum temperature yesterday: 46 °F (at 4:50 AM)
Average temperature yesterday: 59 °F

Past Weeks' High & Low Weather Summary

 TemperatureHumidityPressure
High73 °F (Mar 30, 3:50 PM)100% (Mar 16, 9:50 AM)30.36 "Hg (Mar 16, 9:50 AM)
Low37 °F (Mar 23, 5:20 AM)15% (Mar 27, 4:50 PM)29.53 "Hg (Mar 25, 5:50 PM)
Average53 °F74%29.99 "Hg
* Reported Mar 16 5:20 AM — Mar 31 6:20 AM, Monza, Weather by CustomWeather, © 2015

Note: Actual official high and low records may vary slightly from our data, if they occured in-between our weather recording intervals... More about our weather records

Advertising

Monza weather history for previous 24 hours

 ConditionsComfort  
Time TempWeatherWind HumidityBarometerVisibility
6:20 AM
Tue, Mar 31
52 °FClear.2 mph67%29.80 "Hg10 mi
5:50 AM54 °FPassing clouds.3 mph63%29.83 "HgN/A
5:20 AM55 °FClear.8 mph59%29.80 "Hg10 mi
4:50 AM54 °FClear.6 mph58%29.83 "Hg10 mi
4:20 AM52 °FPassing clouds.6 mph67%29.83 "HgN/A
3:50 AM52 °FClear.2 mph67%29.83 "Hg10 mi
3:20 AM54 °FClear.8 mph63%29.83 "Hg10 mi
2:50 AM54 °FClear.8 mph63%29.86 "Hg10 mi
2:20 AM55 °FClear.2 mph55%29.83 "Hg10 mi
1:50 AM55 °FPassing clouds.3 mph55%29.83 "HgN/A
1:20 AM59 °FPassing clouds.3 mph45%29.86 "HgN/A
12:50 AM59 °FPassing clouds.3 mph45%29.83 "HgN/A
12:20 AM57 °FClear.5 mph48%29.83 "Hg10 mi
11:50 PM
Mon, Mar 30
61 °FPassing clouds.6 mph42%29.83 "HgN/A
10:50 PM61 °FPassing clouds.5 mph42%29.83 "HgN/A
10:20 PM61 °FPassing clouds.5 mph45%29.83 "HgN/A
9:50 PM61 °FClear.10 mph45%29.80 "Hg10 mi
9:20 PM63 °FPassing clouds.13 mph42%29.77 "HgN/A
8:50 PM64 °FClear.13 mph40%29.74 "Hg10 mi
8:20 PM64 °FSunny.15 mph40%29.74 "Hg10 mi
7:50 PM66 °FSunny.15 mph35%29.71 "Hg10 mi
7:20 PM68 °FPassing clouds.12 mph30%29.71 "HgN/A
6:50 PM70 °FPassing clouds.10 mph31%29.68 "HgN/A
6:20 PM70 °FPassing clouds.13 mph33%29.68 "HgN/A
5:50 PM73 °FPassing clouds.9 mph29%29.65 "HgN/A
5:20 PM73 °FPassing clouds.6 mph31%29.62 "HgN/A
4:50 PM73 °FPassing clouds.6 mph31%29.62 "HgN/A
4:20 PM72 °FPassing clouds.9 mph33%29.62 "HgN/A
3:50 PM73 °FPassing clouds.10 mph31%29.62 "HgN/A
3:20 PM72 °FPassing clouds.10 mph36%29.62 "HgN/A
2:50 PM70 °FPassing clouds.10 mph40%29.62 "HgN/A
2:20 PM70 °FPassing clouds.10 mph38%29.65 "HgN/A
1:50 PM68 °FPassing clouds.10 mph46%29.65 "HgN/A
1:20 PM66 °FPassing clouds.10 mph49%29.65 "HgN/A
12:50 PM64 °FPassing clouds.12 mph52%29.65 "HgN/A
12:20 PM63 °FPassing clouds.9 mph59%29.65 "HgN/A
11:50 AM61 °FPassing clouds.10 mph63%29.65 "HgN/A
11:20 AM59 °FPassing clouds.8 mph68%29.68 "HgN/A
10:50 AM59 °FPassing clouds.9 mph68%29.68 "HgN/A
10:20 AM57 °FPassing clouds.6 mph67%29.68 "HgN/A
9:50 AM55 °FPassing clouds.5 mph67%29.65 "HgN/A
9:20 AM54 °FPassing clouds.3 mph77%29.65 "HgN/A
8:50 AM52 °FSunny.5 mph82%29.68 "Hg10 mi
8:20 AM50 °FPassing clouds.3 mph82%29.68 "HgN/A
7:50 AM48 °FClear.2 mph82%29.68 "Hg10 mi
7:20 AM46 °FClear.2 mph87%29.65 "Hg10 mi
Weather by CustomWeather, © 2015

See weather overviewHow to use our weather pages